Weather History for Kalamata, Greece

Change the Weather History Date:

Tuesday, November 22, 2011

  Actual Average Record
Temperature  
Mean Temperature 52 °F -  
Max Temperature 64 °F 64 °F 73 °F (2010)
Min Temperature 41 °F 46 °F 30 °F (2005)
Degree Days  
Heating Degree Days 12    
Growing Degree Days 2 (Base 50)    
Moisture  
Dew Point 45 °F    
Average Humidity 72    
Maximum Humidity 100    
Minimum Humidity 54    
Precipitation  
Precipitation 0.00 in 0.20 in - ()
Sea Level Pressure  
Sea Level Pressure 30.19 in    
Wind  
Wind Speed 1 mph ()    
Max Wind Speed 5 mph    
Max Gust Speed -    
Visibility 5.7 miles    
Events      
Averages and records for this station are not official NWS values.
T = Trace of Precipitation, MM = Missing Value Source: Averaged Metar Reports

Daily Weather History Graph

Daily Weather History Graph

Search for Another Location

Airport:

Trip Planner

Search our weather history database for the weather conditions in past years. The results will help you decide how hot, cold, wet, or windy it might be!

Date:

Astronomy

Nov. 22, 2011 Rise Set
Actual Time 7:17 AM EET 5:18 PM EET
Civil Twilight 6:49 AM EET 5:46 PM EET
Nautical Twilight 6:17 AM EET 6:18 PM EET
Astronomical Twilight 5:46 AM EET 6:49 PM EET
Moon 3:48 AM EET (11/22) 3:02 PM EET (11/22)
Length of Visible Light 10h 57m
Length of Day
10h 00m
Waning Crescent, 12% of the Moon is Illuminated
Nov 22
Waning Crescent
Nov 25
New
Dec 2
First Quarter
Dec 10
Full
Dec 18
Last Quarter

Hourly Weather History & Observations

Time (EET) Temp. Windchill Dew Point Humidity Pressure Visibility Wind Dir Wind Speed Gust Speed Precip Events Conditions
1:50 AM 42.8 °F - 39.2 °F 87% 30.21 in - Calm Calm - N/A   Clear
4:50 AM 41.0 °F - 39.2 °F 93% 30.21 in 6.2 mi Calm Calm - N/A   Scattered Clouds
5:20 AM 41.0 °F - 39.2 °F 93% 30.21 in 6.2 mi Calm Calm - N/A   Scattered Clouds
5:50 AM 41.0 °F - 39.2 °F 93% 30.18 in 6.2 mi Calm Calm - N/A   Scattered Clouds
6:20 AM 41.0 °F - 39.2 °F 93% 30.18 in 6.2 mi Calm Calm - N/A   Scattered Clouds
6:50 AM 41.0 °F - 41.0 °F 100% 30.21 in 6.2 mi Calm Calm - N/A   Scattered Clouds
7:20 AM 42.8 °F - 41.0 °F 93% 30.21 in 6.2 mi Calm Calm - N/A   Scattered Clouds
7:50 AM 42.8 °F 40.1 °F 41.0 °F 93% 30.21 in 3.7 mi NNW 4.6 mph - N/A   Mostly Cloudy
8:20 AM 46.4 °F 44.3 °F 42.8 °F 87% 30.21 in 3.7 mi NNW 4.6 mph - N/A   Mostly Cloudy
8:50 AM 50.0 °F - 42.8 °F 76% 30.24 in 5.0 mi North 4.6 mph - N/A   Scattered Clouds
9:20 AM 53.6 °F - 46.4 °F 77% 30.24 in 5.0 mi North 4.6 mph - N/A   Scattered Clouds
9:50 AM 55.4 °F - 44.6 °F 67% 30.24 in 5.0 mi NNW 4.6 mph - N/A   Mostly Cloudy
10:20 AM 57.2 °F - 46.4 °F 67% 30.24 in 5.0 mi Calm Calm - N/A   Mostly Cloudy
10:50 AM 59.0 °F - 46.4 °F 63% 30.24 in 5.0 mi Calm Calm - N/A   Mostly Cloudy
11:20 AM 60.8 °F - 46.4 °F 59% 30.24 in 5.0 mi Calm Calm - N/A   Mostly Cloudy
11:50 AM 60.8 °F - 46.4 °F 59% 30.24 in 5.0 mi Calm Calm - N/A   Mostly Cloudy
12:20 PM 60.8 °F - 46.4 °F 59% 30.21 in 5.0 mi Calm Calm - N/A   Mostly Cloudy
12:50 PM 62.6 °F - 48.2 °F 59% 30.18 in 6.2 mi South 4.6 mph - N/A   Mostly Cloudy
1:20 PM 62.6 °F - 48.2 °F 59% 30.18 in 6.2 mi South 4.6 mph - N/A   Mostly Cloudy
1:50 PM 64.4 °F - 50.0 °F 59% 30.18 in 6.2 mi SSE 4.6 mph - N/A   Mostly Cloudy
2:20 PM 64.4 °F - 50.0 °F 59% 30.18 in 6.2 mi SSE 4.6 mph - N/A   Mostly Cloudy
2:50 PM 64.4 °F - 50.0 °F 59% 30.15 in 6.2 mi SSE 4.6 mph - N/A   Mostly Cloudy
3:20 PM 64.4 °F - 50.0 °F 59% 30.15 in 6.2 mi SSE 4.6 mph - N/A   Mostly Cloudy
3:50 PM 62.6 °F - 50.0 °F 63% 30.15 in 6.2 mi Calm Calm - N/A   Mostly Cloudy
4:20 PM 62.6 °F - 50.0 °F 63% 30.15 in 6.2 mi Calm Calm - N/A   Mostly Cloudy
4:50 PM 62.6 °F - 50.0 °F 63% 30.15 in 6.2 mi Calm Calm - N/A   Mostly Cloudy
5:20 PM 62.6 °F - 50.0 °F 63% 30.15 in 6.2 mi Calm Calm - N/A   Scattered Clouds
5:50 PM 59.0 °F - 50.0 °F 72% 30.15 in 6.2 mi Calm Calm - N/A   Scattered Clouds
6:20 PM - - - N/A% 30.15 in 6.2 mi Calm Calm - N/A   Scattered Clouds
6:50 PM 55.4 °F - 39.2 °F 54% 30.18 in 6.2 mi Calm Calm - N/A   Scattered Clouds
7:20 PM 53.6 °F - 39.2 °F 58% 30.18 in 6.2 mi Calm Calm - N/A   Scattered Clouds
7:50 PM 50.0 °F - 48.2 °F 94% 30.18 in 6.2 mi Calm Calm - N/A   Scattered Clouds
10:50 PM 51.8 °F - 44.6 °F 76% 30.18 in 6.2 mi Calm Calm - N/A   Scattered Clouds